GFSFLT2_prec_precacc12_060.txt.gz
Total_Precipitation_Accumulation
0.69 0.61 0.53 0.55 0.47 1.10 1.04 0.12 0.01 0.00 0.01 0.02 0.02 0.01 0.01 0.00 0.00 0.00 0.00 0.00 0.00 0.00 0.00 0.00 0.00 0.00 0.00 0.00 0.00 0.00 0.00 0.00
0.90 0.67 0.58 0.58 0.68 0.52 0.32 0.12 0.03 0.00 0.00 0.01 0.05 0.05 0.02 0.00 0.00 0.00 0.00 0.00 0.00 0.00 0.00 0.00 0.00 0.00 0.00 0.00 0.00 0.00 0.00 0.00
0.83 1.01 0.68 0.62 0.87 0.75 0.34 0.12 0.02 0.00 0.02 0.06 0.04 0.07 0.08 0.02 0.00 0.00 0.00 0.00 0.00 0.00 0.00 0.00 0.00 0.00 0.00 0.00 0.00 0.00 0.00 0.00
0.25 0.30 0.23 0.24 0.33 0.29 0.32 0.21 0.06 0.00 0.01 0.03 0.04 0.04 0.03 0.00 0.00 0.00 0.00 0.00 0.00 0.00 0.00 0.00 0.00 0.00 0.00 0.00 0.00 0.00 0.00 0.00
0.17 0.26 0.17 0.14 0.18 0.16 0.14 0.12 0.08 0.01 0.01 0.01 0.02 0.01 0.00 0.00 0.00 0.00 0.00 0.00 0.00 0.00 0.00 0.00 0.00 0.00 0.00 0.00 0.00 0.00 0.00 0.00
0.31 0.24 0.29 0.34 0.29 0.25 0.19 0.15 0.04 0.03 0.02 0.01 0.01 0.00 0.00 0.00 0.00 0.00 0.00 0.00 0.00 0.00 0.00 0.00 0.00 0.00 0.00 0.00 0.00 0.00 0.00 0.00
0.43 0.28 0.29 0.27 0.27 0.30 0.24 0.16 0.06 0.09 0.03 0.02 0.00 0.00 0.01 0.00 0.00 0.00 0.00 0.00 0.00 0.00 0.00 0.00 0.00 0.00 0.00 0.00 0.00 0.00 0.00 0.00
0.47 0.51 0.26 0.30 0.32 0.32 0.29 0.12 0.06 0.08 0.04 0.04 0.01 0.01 0.00 0.00 0.00 0.00 0.00 0.00 0.00 0.00 0.00 0.00 0.00 0.00 0.00 0.00 0.00 0.00 0.00 0.00
0.30 0.28 0.34 0.22 0.14 0.19 0.15 0.10 0.06 0.06 0.04 0.02 0.01 0.01 0.00 0.00 0.00 0.01 0.00 0.00 0.00 0.00 0.00 0.00 0.00 0.00 0.00 0.00 0.00 0.00 0.00 0.00
0.09 0.08 0.07 0.13 0.07 0.06 0.02 0.02 0.03 0.03 0.02 0.02 0.01 0.01 0.01 0.00 0.04 0.03 0.00 0.00 0.00 0.00 0.00 0.00 0.00 0.00 0.00 0.00 0.00 0.00 0.00 0.00
0.05 0.05 0.04 0.04 0.02 0.00 0.00 0.00 0.00 0.01 0.02 0.05 0.04 0.04 0.05 0.04 0.02 0.00 0.01 0.02 0.00 0.00 0.00 0.00 0.00 0.00 0.00 0.00 0.00 0.00 0.00 0.00
0.00 0.01 0.02 0.03 0.04 0.00 0.00 0.01 0.00 0.01 0.04 0.03 0.07 0.09 0.07 0.06 0.05 0.03 0.04 0.05 0.00 0.00 0.00 0.00 0.00 0.00 0.00 0.00 0.00 0.00 0.00 0.00
0.00 0.00 0.01 0.05 0.02 0.00 0.00 0.00 0.00 0.00 0.03 0.01 0.04 0.06 0.04 0.07 0.09 0.07 0.09 0.04 0.01 0.00 0.00 0.00 0.00 0.00 0.00 0.00 0.00 0.00 0.00 0.00
0.00 0.00 0.01 0.06 0.03 0.00 0.00 0.00 0.00 0.00 0.00 0.02 0.06 0.10 0.04 0.04 0.07 0.04 0.03 0.02 0.00 0.00 0.00 0.00 0.00 0.00 0.00 0.00 0.00 0.00 0.00 0.00
0.00 0.00 0.00 0.03 0.00 0.00 0.00 0.00 0.00 0.00 0.00 0.01 0.03 0.04 0.03 0.00 0.04 0.01 0.00 0.00 0.00 0.00 0.00 0.00 0.00 0.00 0.00 0.00 0.00 0.00 0.00 0.00
0.00 0.00 0.00 0.00 0.00 0.01 0.00 0.00 0.00 0.00 0.00 0.00 0.02 0.05 0.05 0.02 0.01 0.01 0.00 0.00 0.00 0.00 0.00 0.00 0.00 0.00 0.00 0.00 0.00 0.00 0.00 0.00
0.00 0.00 0.00 0.00 0.00 0.00 0.01 0.00 0.00 0.00 0.00 0.02 0.02 0.01 0.02 0.03 0.02 0.06 0.02 0.01 0.04 0.04 0.02 0.01 0.00 0.01 0.01 0.01 0.02 0.01 0.00 0.00
0.00 0.00 0.00 0.00 0.00 0.00 0.02 0.05 0.02 0.01 0.00 0.00 0.03 0.02 0.00 0.03 0.04 0.03 0.05 0.04 0.09 0.11 0.08 0.05 0.04 0.03 0.05 0.08 0.09 0.03 0.04 0.08
0.00 0.00 0.00 0.00 0.00 0.00 0.00 0.06 0.07 0.09 0.03 0.01 0.08 0.04 0.01 0.05 0.14 0.11 0.08 0.17 0.17 0.13 0.08 0.06 0.06 0.14 0.23 0.19 0.16 0.15 0.08 0.04
0.00 0.00 0.00 0.00 0.03 0.18 0.14 0.07 0.16 0.27 0.19 0.08 0.18 0.10 0.07 0.10 0.20 0.34 0.28 0.22 0.18 0.14 0.09 0.10 0.10 0.13 0.16 0.14 0.13 0.14 0.17 0.13

GFSFLT2_prec_precacc12_066.txt.gz
Total_Precipitation_Accumulation
0.86 0.77 1.54 2.64 1.81 1.56 1.88 1.02 0.26 0.11 0.02 0.02 0.02 0.01 0.01 0.00 0.00 0.00 0.00 0.00 0.00 0.00 0.00 0.00 0.00 0.00 0.00 0.00 0.00 0.00 0.00 0.00
0.93 0.89 0.89 0.75 1.67 1.56 1.13 0.66 0.39 0.17 0.06 0.03 0.05 0.05 0.02 0.00 0.00 0.00 0.00 0.00 0.00 0.00 0.00 0.00 0.00 0.00 0.00 0.00 0.00 0.00 0.00 0.00
1.22 2.32 1.25 0.62 0.73 1.07 0.64 0.35 0.43 0.38 0.19 0.12 0.04 0.07 0.08 0.02 0.00 0.00 0.00 0.00 0.00 0.00 0.00 0.00 0.00 0.00 0.00 0.00 0.00 0.00 0.00 0.00
0.36 0.98 0.63 0.33 0.52 0.48 0.30 0.30 0.24 0.47 0.31 0.11 0.04 0.04 0.03 0.00 0.00 0.00 0.00 0.00 0.00 0.00 0.00 0.00 0.00 0.00 0.00 0.00 0.00 0.00 0.00 0.00
0.32 0.34 0.40 0.26 0.19 0.15 0.04 0.08 0.14 0.28 0.28 0.12 0.02 0.01 0.00 0.00 0.00 0.00 0.00 0.00 0.00 0.00 0.00 0.00 0.00 0.00 0.00 0.00 0.00 0.00 0.00 0.00
0.54 0.41 0.45 0.34 0.15 0.10 0.03 0.02 0.03 0.11 0.10 0.07 0.01 0.00 0.00 0.00 0.00 0.00 0.00 0.00 0.00 0.00 0.00 0.00 0.00 0.00 0.00 0.00 0.00 0.00 0.00 0.00
0.57 0.41 0.37 0.34 0.20 0.11 0.05 0.03 0.02 0.07 0.05 0.05 0.00 0.00 0.01 0.00 0.00 0.00 0.00 0.00 0.00 0.00 0.00 0.00 0.00 0.00 0.00 0.00 0.00 0.00 0.00 0.00
0.40 0.56 0.34 0.20 0.20 0.19 0.21 0.16 0.07 0.09 0.05 0.05 0.00 0.00 0.00 0.00 0.00 0.00 0.00 0.00 0.00 0.00 0.00 0.00 0.00 0.00 0.00 0.00 0.00 0.00 0.00 0.00
0.40 0.46 0.63 0.35 0.18 0.19 0.20 0.17 0.15 0.11 0.07 0.04 0.00 0.00 0.00 0.00 0.00 0.01 0.00 0.00 0.00 0.00 0.00 0.00 0.00 0.00 0.00 0.00 0.00 0.00 0.00 0.00
0.17 0.28 0.49 0.49 0.28 0.11 0.10 0.07 0.08 0.09 0.08 0.04 0.00 0.00 0.00 0.00 0.04 0.03 0.00 0.00 0.00 0.00 0.00 0.00 0.00 0.00 0.00 0.00 0.00 0.00 0.00 0.00
0.08 0.17 0.23 0.23 0.20 0.11 0.05 0.03 0.04 0.05 0.04 0.02 0.01 0.00 0.00 0.00 0.00 0.00 0.01 0.02 0.00 0.00 0.00 0.00 0.00 0.00 0.00 0.00 0.00 0.00 0.00 0.00
0.01 0.07 0.11 0.17 0.07 0.13 0.07 0.04 0.02 0.02 0.03 0.01 0.00 0.00 0.00 0.00 0.01 0.01 0.05 0.05 0.00 0.00 0.00 0.00 0.00 0.00 0.00 0.00 0.00 0.00 0.00 0.00
0.00 0.00 0.02 0.03 0.02 0.07 0.05 0.05 0.01 0.02 0.01 0.00 0.00 0.00 0.00 0.00 0.03 0.07 0.09 0.05 0.01 0.00 0.00 0.00 0.00 0.00 0.00 0.00 0.00 0.00 0.00 0.00
0.00 0.00 0.00 0.00 0.00 0.01 0.01 0.04 0.01 0.00 0.01 0.01 0.01 0.00 0.02 0.07 0.07 0.03 0.04 0.04 0.02 0.00 0.00 0.00 0.00 0.00 0.00 0.00 0.00 0.00 0.00 0.00
0.00 0.00 0.00 0.00 0.00 0.00 0.00 0.01 0.01 0.00 0.00 0.00 0.00 0.01 0.02 0.02 0.09 0.06 0.05 0.01 0.00 0.00 0.00 0.01 0.01 0.01 0.00 0.00 0.00 0.00 0.00 0.00
0.00 0.00 0.00 0.00 0.00 0.00 0.00 0.00 0.01 0.00 0.00 0.00 0.01 0.01 0.01 0.00 0.01 0.01 0.02 0.00 0.00 0.00 0.02 0.02 0.03 0.02 0.01 0.01 0.00 0.00 0.00 0.00
0.00 0.00 0.00 0.00 0.00 0.00 0.00 0.00 0.00 0.00 0.00 0.00 0.00 0.01 0.02 0.01 0.01 0.05 0.01 0.01 0.03 0.04 0.04 0.05 0.06 0.05 0.05 0.03 0.04 0.04 0.03 0.02
0.00 0.00 0.00 0.00 0.00 0.00 0.01 0.03 0.02 0.01 0.00 0.00 0.01 0.01 0.00 0.02 0.03 0.02 0.03 0.02 0.06 0.10 0.14 0.13 0.17 0.15 0.10 0.12 0.13 0.11 0.09 0.13
0.00 0.00 0.00 0.00 0.00 0.00 0.00 0.02 0.03 0.09 0.03 0.00 0.03 0.03 0.00 0.02 0.10 0.08 0.07 0.18 0.20 0.24 0.24 0.25 0.31 0.38 0.47 0.42 0.30 0.23 0.13 0.10
0.00 0.00 0.00 0.00 0.00 0.00 0.00 0.00 0.00 0.04 0.13 0.07 0.12 0.08 0.04 0.06 0.15 0.33 0.27 0.24 0.24 0.30 0.43 0.59 0.66 0.55 0.38 0.30 0.22 0.19 0.22 0.21

GFSFLT2_prec_precacc12_072.txt.gz
Total_Precipitation_Accumulation
0.90 0.62 1.33 2.32 1.65 0.80 1.30 1.35 0.45 0.19 0.03 0.03 0.01 0.00 0.01 0.00 0.00 0.01 0.01 0.00 0.00 0.00 0.00 0.00 0.00 0.00 0.00 0.00 0.00 0.00 0.00 0.00
0.98 0.91 0.96 0.71 1.51 1.33 1.13 1.01 0.81 0.42 0.16 0.04 0.01 0.00 0.00 0.00 0.00 0.00 0.00 0.00 0.00 0.00 0.00 0.00 0.00 0.00 0.00 0.00 0.00 0.00 0.00 0.00
1.06 2.42 1.73 1.44 1.19 1.25 1.14 0.94 0.85 0.77 0.46 0.16 0.03 0.00 0.00 0.00 0.00 0.00 0.00 0.00 0.00 0.00 0.00 0.00 0.00 0.00 0.00 0.00 0.00 0.00 0.00 0.00
0.43 1.43 1.82 1.38 2.22 2.24 1.10 0.89 0.58 0.69 0.57 0.22 0.06 0.02 0.00 0.00 0.00 0.01 0.00 0.00 0.00 0.00 0.00 0.00 0.00 0.00 0.00 0.00 0.00 0.00 0.00 0.00
0.47 0.58 0.71 0.81 1.38 1.10 1.00 0.67 0.52 0.51 0.53 0.22 0.05 0.02 0.00 0.00 0.00 0.00 0.00 0.00 0.00 0.00 0.00 0.00 0.00 0.00 0.00 0.00 0.00 0.00 0.00 0.00
0.47 0.38 0.47 0.68 0.82 0.50 0.37 0.32 0.29 0.29 0.31 0.15 0.02 0.00 0.00 0.00 0.00 0.00 0.00 0.00 0.00 0.00 0.00 0.00 0.00 0.00 0.00 0.00 0.00 0.00 0.00 0.00
0.42 0.42 0.42 0.49 0.34 0.22 0.16 0.07 0.16 0.18 0.19 0.09 0.01 0.00 0.00 0.00 0.00 0.00 0.00 0.00 0.00 0.00 0.00 0.00 0.00 0.00 0.00 0.00 0.00 0.00 0.00 0.00
0.38 0.57 0.54 0.52 0.29 0.18 0.17 0.12 0.08 0.13 0.13 0.04 0.00 0.00 0.00 0.00 0.00 0.00 0.00 0.00 0.00 0.00 0.00 0.00 0.00 0.00 0.00 0.00 0.00 0.00 0.00 0.00
0.32 0.63 0.67 0.71 0.42 0.28 0.23 0.25 0.15 0.10 0.08 0.02 0.00 0.00 0.00 0.00 0.00 0.00 0.00 0.00 0.00 0.00 0.00 0.00 0.00 0.00 0.00 0.00 0.00 0.00 0.00 0.00
0.13 0.35 0.69 0.70 0.59 0.38 0.52 0.26 0.18 0.12 0.11 0.04 0.00 0.00 0.00 0.00 0.00 0.00 0.00 0.00 0.00 0.00 0.00 0.00 0.00 0.00 0.00 0.00 0.00 0.00 0.00 0.00
0.05 0.22 0.54 0.64 0.53 0.32 0.36 0.37 0.18 0.17 0.13 0.07 0.01 0.00 0.00 0.00 0.00 0.00 0.00 0.00 0.00 0.00 0.00 0.00 0.00 0.00 0.00 0.00 0.00 0.00 0.00 0.00
0.02 0.09 0.31 0.48 0.28 0.27 0.16 0.19 0.16 0.17 0.18 0.09 0.01 0.00 0.00 0.00 0.00 0.00 0.00 0.00 0.00 0.00 0.00 0.00 0.00 0.00 0.00 0.00 0.00 0.00 0.00 0.00
0.01 0.01 0.07 0.12 0.12 0.13 0.13 0.12 0.08 0.10 0.09 0.09 0.04 0.00 0.00 0.00 0.00 0.01 0.00 0.01 0.01 0.00 0.01 0.03 0.01 0.00 0.00 0.00 0.00 0.00 0.00 0.00
0.00 0.00 0.01 0.00 0.02 0.03 0.06 0.10 0.08 0.05 0.08 0.08 0.06 0.00 0.01 0.03 0.02 0.01 0.02 0.03 0.04 0.03 0.04 0.03 0.05 0.05 0.03 0.02 0.00 0.01 0.00 0.00
0.00 0.00 0.00 0.00 0.00 0.02 0.04 0.08 0.13 0.07 0.08 0.11 0.12 0.03 0.02 0.03 0.07 0.08 0.08 0.05 0.05 0.06 0.06 0.04 0.04 0.05 0.04 0.02 0.01 0.02 0.03 0.00
0.00 0.00 0.00 0.00 0.00 0.00 0.01 0.01 0.04 0.04 0.01 0.05 0.14 0.08 0.01 0.01 0.01 0.03 0.05 0.05 0.08 0.07 0.06 0.04 0.06 0.11 0.03 0.02 0.00 0.02 0.02 0.01
0.00 0.00 0.00 0.00 0.00 0.00 0.00 0.00 0.00 0.02 0.03 0.04 0.12 0.17 0.03 0.02 0.02 0.03 0.03 0.02 0.07 0.08 0.05 0.04 0.06 0.12 0.07 0.04 0.02 0.03 0.03 0.02
0.00 0.00 0.00 0.00 0.00 0.00 0.00 0.00 0.00 0.00 0.01 0.01 0.03 0.09 0.05 0.02 0.01 0.02 0.04 0.04 0.05 0.07 0.14 0.15 0.18 0.18 0.12 0.10 0.07 0.09 0.06 0.05
0.00 0.00 0.00 0.00 0.00 0.00 0.00 0.00 0.00 0.00 0.00 0.00 0.00 0.00 0.00 0.00 0.00 0.00 0.01 0.04 0.08 0.15 0.22 0.25 0.29 0.30 0.33 0.32 0.27 0.22 0.15 0.14
0.00 0.00 0.00 0.00 0.00 0.00 0.00 0.00 0.00 0.00 0.00 0.00 0.00 0.00 0.00 0.00 0.00 0.00 0.01 0.04 0.09 0.19 0.36 0.52 0.61 0.50 0.42 0.36 0.26 0.18 0.16 0.18

GFSFLT2_prec_precacc12_075.txt.gz
Total_Precipitation_Accumulation
0.64 0.32 0.20 0.73 1.04 0.89 1.57 1.60 0.60 0.14 0.07 0.09 0.02 0.01 0.01 0.00 0.00 0.01 0.01 0.00 0.00 0.00 0.00 0.00 0.00 0.00 0.00 0.00 0.00 0.00 0.00 0.00
0.60 0.71 0.81 0.47 1.30 1.51 1.59 1.64 1.49 0.75 0.26 0.16 0.12 0.05 0.00 0.00 0.00 0.01 0.00 0.00 0.00 0.00 0.00 0.00 0.00 0.00 0.00 0.00 0.00 0.00 0.00 0.00
0.89 2.26 1.65 1.40 1.16 1.28 1.20 1.09 1.17 1.12 0.57 0.23 0.24 0.11 0.02 0.01 0.02 0.00 0.00 0.00 0.00 0.00 0.00 0.00 0.00 0.00 0.00 0.00 0.00 0.00 0.00 0.00
0.39 1.33 1.74 1.35 2.03 2.13 1.15 0.96 0.74 0.77 0.58 0.29 0.31 0.19 0.03 0.02 0.01 0.01 0.00 0.00 0.00 0.00 0.00 0.00 0.00 0.00 0.00 0.00 0.00 0.00 0.00 0.00
0.37 0.48 0.63 0.78 1.34 1.08 1.23 1.00 0.82 0.59 0.60 0.33 0.31 0.26 0.03 0.04 0.03 0.01 0.00 0.00 0.00 0.00 0.00 0.00 0.00 0.00 0.00 0.00 0.00 0.00 0.00 0.00
0.24 0.20 0.32 0.58 0.88 0.79 0.51 0.63 0.78 0.53 0.51 0.39 0.27 0.18 0.02 0.01 0.01 0.00 0.00 0.00 0.00 0.00 0.00 0.00 0.00 0.00 0.00 0.00 0.00 0.00 0.00 0.00
0.20 0.26 0.29 0.37 0.27 0.39 0.32 0.21 0.54 0.41 0.41 0.38 0.27 0.07 0.01 0.01 0.01 0.00 0.00 0.00 0.00 0.00 0.00 0.00 0.00 0.00 0.00 0.00 0.00 0.00 0.00 0.00
0.20 0.34 0.43 0.46 0.23 0.19 0.16 0.19 0.23 0.44 0.42 0.29 0.21 0.03 0.00 0.01 0.01 0.00 0.00 0.00 0.00 0.00 0.00 0.00 0.00 0.00 0.00 0.00 0.00 0.00 0.00 0.00
0.25 0.45 0.54 0.64 0.41 0.32 0.23 0.25 0.22 0.28 0.31 0.22 0.11 0.01 0.00 0.00 0.00 0.00 0.00 0.00 0.00 0.00 0.00 0.00 0.00 0.00 0.00 0.00 0.00 0.00 0.00 0.00
0.09 0.26 0.51 0.59 0.56 0.56 0.64 0.29 0.24 0.21 0.23 0.14 0.05 0.00 0.00 0.00 0.00 0.00 0.00 0.00 0.00 0.00 0.00 0.00 0.00 0.00 0.00 0.00 0.00 0.00 0.00 0.00
0.03 0.18 0.46 0.65 0.56 0.40 0.47 0.46 0.22 0.21 0.18 0.09 0.01 0.00 0.00 0.00 0.00 0.00 0.00 0.00 0.00 0.00 0.00 0.00 0.00 0.00 0.00 0.00 0.00 0.00 0.00 0.00
0.02 0.09 0.29 0.47 0.37 0.30 0.29 0.31 0.21 0.24 0.20 0.10 0.01 0.00 0.00 0.00 0.00 0.00 0.00 0.00 0.00 0.00 0.00 0.00 0.00 0.00 0.00 0.00 0.00 0.00 0.00 0.00
0.01 0.02 0.07 0.14 0.18 0.21 0.17 0.17 0.10 0.13 0.11 0.10 0.04 0.00 0.00 0.00 0.00 0.01 0.00 0.01 0.01 0.00 0.01 0.03 0.01 0.00 0.00 0.00 0.00 0.00 0.00 0.00
0.01 0.01 0.01 0.01 0.03 0.04 0.07 0.10 0.10 0.06 0.08 0.08 0.06 0.00 0.01 0.03 0.02 0.01 0.02 0.03 0.03 0.03 0.04 0.03 0.05 0.05 0.03 0.02 0.02 0.01 0.00 0.00
0.00 0.01 0.00 0.00 0.01 0.03 0.05 0.12 0.22 0.14 0.12 0.11 0.12 0.03 0.02 0.03 0.07 0.08 0.08 0.05 0.05 0.05 0.06 0.04 0.09 0.05 0.04 0.11 0.13 0.11 0.11 0.02
0.00 0.00 0.01 0.00 0.00 0.01 0.01 0.02 0.08 0.08 0.05 0.07 0.15 0.08 0.01 0.01 0.01 0.03 0.05 0.05 0.08 0.07 0.04 0.02 0.14 0.21 0.04 0.02 0.02 0.10 0.14 0.13
0.00 0.00 0.00 0.00 0.00 0.00 0.00 0.00 0.00 0.02 0.06 0.10 0.16 0.20 0.04 0.02 0.02 0.03 0.03 0.02 0.09 0.13 0.08 0.03 0.09 0.19 0.08 0.08 0.01 0.01 0.02 0.04
0.00 0.00 0.00 0.00 0.00 0.00 0.00 0.00 0.00 0.00 0.02 0.03 0.05 0.14 0.10 0.02 0.01 0.02 0.04 0.05 0.08 0.10 0.11 0.14 0.21 0.23 0.15 0.12 0.08 0.06 0.04 0.05
0.00 0.00 0.00 0.00 0.00 0.00 0.00 0.00 0.00 0.00 0.00 0.00 0.00 0.01 0.03 0.01 0.00 0.00 0.01 0.02 0.03 0.06 0.11 0.18 0.23 0.30 0.36 0.32 0.28 0.21 0.15 0.15
0.00 0.00 0.00 0.00 0.00 0.00 0.00 0.00 0.00 0.00 0.00 0.00 0.00 0.00 0.00 0.00 0.00 0.00 0.00 0.01 0.02 0.04 0.09 0.16 0.46 0.49 0.46 0.37 0.24 0.16 0.14 0.17

GFSFLT2_prec_precacc12_078.txt.gz
Total_Precipitation_Accumulation
0.45 0.22 0.10 0.22 0.41 0.69 1.25 2.00 2.07 0.87 0.21 0.11 0.02 0.01 0.02 0.00 0.00 0.01 0.01 0.00 0.00 0.00 0.00 0.00 0.00 0.00 0.00 0.00 0.00 0.00 0.00 0.00
0.37 0.34 0.41 0.26 0.43 0.52 0.98 2.26 2.97 1.56 0.55 0.41 0.14 0.05 0.01 0.01 0.00 0.01 0.00 0.00 0.00 0.00 0.00 0.00 0.00 0.00 0.00 0.00 0.00 0.00 0.00 0.00
0.14 0.47 0.84 1.22 1.02 0.81 0.92 1.19 2.07 2.61 1.13 0.60 0.40 0.15 0.08 0.03 0.02 0.00 0.00 0.00 0.00 0.00 0.00 0.00 0.00 0.00 0.00 0.00 0.00 0.00 0.00 0.00
0.19 0.58 1.38 1.39 2.08 2.12 1.09 0.89 0.81 1.66 1.20 0.54 0.40 0.32 0.28 0.25 0.04 0.01 0.00 0.00 0.00 0.00 0.00 0.00 0.00 0.00 0.00 0.00 0.00 0.00 0.00 0.00
0.22 0.38 0.50 0.74 1.40 1.10 1.22 1.00 0.79 0.87 0.97 0.38 0.35 0.38 0.27 0.39 0.06 0.01 0.00 0.00 0.00 0.00 0.00 0.00 0.00 0.00 0.00 0.00 0.00 0.00 0.00 0.00
0.09 0.05 0.12 0.41 0.87 0.80 0.52 0.66 0.79 0.69 0.97 0.42 0.37 0.26 0.11 0.22 0.06 0.01 0.00 0.00 0.00 0.00 0.00 0.00 0.00 0.00 0.00 0.00 0.00 0.00 0.00 0.00
0.11 0.10 0.14 0.23 0.21 0.36 0.32 0.25 0.64 0.49 0.56 0.49 0.38 0.16 0.05 0.07 0.10 0.00 0.00 0.00 0.00 0.00 0.00 0.00 0.00 0.00 0.00 0.00 0.00 0.00 0.00 0.00
0.13 0.25 0.27 0.37 0.16 0.14 0.14 0.19 0.35 0.53 0.48 0.37 0.35 0.12 0.05 0.03 0.04 0.01 0.00 0.00 0.00 0.00 0.00 0.00 0.00 0.00 0.00 0.00 0.00 0.00 0.00 0.00
0.06 0.33 0.24 0.44 0.28 0.23 0.17 0.24 0.22 0.41 0.41 0.37 0.25 0.10 0.06 0.02 0.02 0.01 0.00 0.00 0.00 0.00 0.00 0.00 0.00 0.00 0.00 0.00 0.00 0.00 0.00 0.00
0.04 0.15 0.26 0.34 0.36 0.50 0.59 0.25 0.21 0.22 0.28 0.29 0.16 0.04 0.04 0.03 0.02 0.00 0.00 0.00 0.00 0.00 0.00 0.00 0.00 0.00 0.00 0.00 0.00 0.00 0.00 0.00
0.03 0.10 0.34 0.48 0.41 0.33 0.44 0.45 0.20 0.20 0.20 0.15 0.07 0.02 0.01 0.01 0.03 0.01 0.02 0.00 0.00 0.00 0.00 0.00 0.00 0.00 0.00 0.00 0.00 0.00 0.00 0.00
0.02 0.04 0.22 0.33 0.32 0.21 0.24 0.31 0.21 0.22 0.19 0.12 0.03 0.01 0.00 0.01 0.03 0.04 0.04 0.01 0.00 0.00 0.00 0.00 0.00 0.00 0.00 0.00 0.00 0.00 0.00 0.00
0.01 0.03 0.06 0.11 0.18 0.16 0.15 0.16 0.10 0.12 0.10 0.10 0.04 0.00 0.00 0.00 0.00 0.00 0.01 0.00 0.00 0.00 0.01 0.03 0.01 0.00 0.00 0.00 0.00 0.00 0.00 0.00
0.01 0.01 0.02 0.01 0.03 0.04 0.06 0.07 0.09 0.06 0.08 0.07 0.06 0.00 0.00 0.00 0.00 0.00 0.00 0.01 0.03 0.03 0.04 0.03 0.05 0.05 0.03 0.02 0.02 0.01 0.00 0.00
0.00 0.01 0.01 0.01 0.01 0.03 0.05 0.12 0.22 0.15 0.13 0.11 0.12 0.02 0.00 0.01 0.01 0.02 0.03 0.04 0.05 0.05 0.06 0.04 0.09 0.05 0.04 0.14 0.17 0.14 0.14 0.03
0.00 0.00 0.01 0.01 0.01 0.02 0.01 0.02 0.07 0.07 0.06 0.07 0.15 0.08 0.01 0.01 0.01 0.02 0.04 0.05 0.08 0.07 0.04 0.02 0.17 0.23 0.04 0.01 0.04 0.14 0.20 0.21
0.00 0.00 0.01 0.00 0.01 0.01 0.01 0.01 0.00 0.03 0.07 0.11 0.16 0.20 0.04 0.02 0.02 0.03 0.03 0.02 0.09 0.14 0.08 0.07 0.13 0.19 0.06 0.10 0.05 0.07 0.08 0.09
0.00 0.00 0.00 0.00 0.01 0.01 0.00 0.01 0.00 0.00 0.02 0.03 0.05 0.14 0.10 0.02 0.01 0.02 0.04 0.05 0.08 0.11 0.14 0.15 0.18 0.21 0.14 0.12 0.08 0.07 0.06 0.08
0.00 0.00 0.00 0.00 0.00 0.01 0.00 0.01 0.01 0.00 0.00 0.00 0.00 0.01 0.03 0.01 0.00 0.00 0.01 0.02 0.03 0.06 0.08 0.11 0.11 0.11 0.13 0.10 0.16 0.18 0.13 0.18
0.00 0.00 0.00 0.00 0.00 0.00 0.00 0.00 0.01 0.00 0.00 0.00 0.00 0.00 0.00 0.00 0.00 0.00 0.00 0.01 0.03 0.03 0.03 0.04 0.04 0.06 0.18 0.24 0.20 0.15 0.12 0.16